TimeCST,TemperatureF,Dew PointF,Humidity,Sea Level PressureIn,VisibilityMPH,Wind Direction,Wind SpeedMPH,Gust SpeedMPH,PrecipitationIn,Events,Conditions,WindDirDegrees,DateUTC
12:15 AM,28.4,12.2,51,30.28,10.0,Calm,Calm,-,N/A,,Unknown,0,2014-01-15 06:15:00
12:35 AM,26.6,14.0,59,30.28,10.0,Calm,Calm,-,N/A,,Unknown,0,2014-01-15 06:35:00
12:55 AM,26.6,14.0,59,30.28,10.0,Calm,Calm,-,N/A,,Unknown,0,2014-01-15 06:55:00
1:15 AM,24.8,14.0,64,30.27,10.0,Calm,Calm,-,N/A,,Unknown,0,2014-01-15 07:15:00
1:35 AM,24.8,14.0,64,30.28,10.0,Calm,Calm,-,N/A,,Unknown,0,2014-01-15 07:35:00
1:55 AM,24.8,15.8,69,30.28,10.0,Calm,Calm,-,N/A,,Unknown,0,2014-01-15 07:55:00
2:15 AM,26.6,14.0,59,30.29,10.0,NW,4.6,-,N/A,,Unknown,310,2014-01-15 08:15:00
2:35 AM,26.6,14.0,59,30.29,10.0,NW,3.5,-,N/A,,Unknown,310,2014-01-15 08:35:00
2:55 AM,30.2,14.0,51,30.30,10.0,NW,6.9,-,N/A,,Unknown,320,2014-01-15 08:55:00
3:15 AM,28.4,14.0,55,30.30,10.0,NNW,6.9,-,N/A,,Unknown,330,2014-01-15 09:15:00
3:35 AM,28.4,14.0,55,30.30,10.0,NNW,8.1,-,N/A,,Unknown,330,2014-01-15 09:35:00
3:55 AM,28.4,14.0,55,30.30,10.0,NNW,8.1,-,N/A,,Unknown,330,2014-01-15 09:55:00
4:15 AM,28.4,14.0,55,30.30,10.0,NNW,6.9,-,N/A,,Unknown,330,2014-01-15 10:15:00
4:35 AM,28.4,14.0,55,30.31,10.0,NNW,8.1,-,N/A,,Unknown,330,2014-01-15 10:35:00
4:55 AM,26.6,14.0,59,30.30,10.0,NNW,6.9,-,N/A,,Unknown,330,2014-01-15 10:55:00
5:15 AM,26.6,14.0,59,30.30,10.0,NNW,4.6,-,N/A,,Unknown,330,2014-01-15 11:15:00
5:35 AM,24.8,14.0,64,30.30,10.0,WNW,4.6,-,N/A,,Unknown,290,2014-01-15 11:35:00
5:55 AM,24.8,14.0,64,30.31,10.0,Calm,Calm,-,N/A,,Unknown,0,2014-01-15 11:55:00
6:15 AM,23.0,14.0,68,30.32,10.0,Calm,Calm,-,N/A,,Unknown,0,2014-01-15 12:15:00
6:35 AM,23.0,14.0,68,30.32,10.0,Calm,Calm,-,N/A,,Unknown,0,2014-01-15 12:35:00
6:55 AM,23.0,14.0,68,30.32,10.0,Calm,Calm,-,N/A,,Unknown,0,2014-01-15 12:55:00
7:15 AM,21.2,14.0,74,30.32,10.0,Calm,Calm,-,N/A,,Unknown,0,2014-01-15 13:15:00
7:35 AM,21.2,14.0,74,30.32,7.0,Calm,Calm,-,N/A,,Unknown,0,2014-01-15 13:35:00
7:55 AM,23.0,14.0,68,30.32,10.0,SW,3.5,-,N/A,,Unknown,230,2014-01-15 13:55:00
8:15 AM,28.4,15.8,59,30.33,10.0,Calm,Calm,-,N/A,,Unknown,0,2014-01-15 14:15:00
8:35 AM,28.4,15.8,59,30.34,10.0,Calm,Calm,-,N/A,,Unknown,0,2014-01-15 14:35:00
8:55 AM,28.4,15.8,59,30.34,10.0,SW,3.5,-,N/A,,Unknown,220,2014-01-15 14:55:00
9:15 AM,32.0,15.8,51,30.34,10.0,WSW,3.5,-,N/A,,Unknown,250,2014-01-15 15:15:00
9:35 AM,33.8,12.2,41,30.34,10.0,NW,5.8,-,N/A,,Unknown,310,2014-01-15 15:35:00
9:55 AM,35.6,12.2,38,30.35,10.0,WNW,5.8,-,N/A,,Unknown,300,2014-01-15 15:55:00
10:15 AM,35.6,8.6,33,30.34,10.0,NW,6.9,-,N/A,,Unknown,310,2014-01-15 16:15:00
10:35 AM,37.4,8.6,30,30.34,10.0,WNW,9.2,-,N/A,,Unknown,290,2014-01-15 16:35:00
10:55 AM,37.4,6.8,28,30.34,10.0,NW,4.6,-,N/A,,Unknown,310,2014-01-15 16:55:00
11:15 AM,39.2,6.8,26,30.34,10.0,NNW,5.8,-,N/A,,Unknown,340,2014-01-15 17:15:00
11:35 AM,39.2,8.6,28,30.32,10.0,NNW,8.1,-,N/A,,Unknown,340,2014-01-15 17:35:00
11:55 AM,39.2,8.6,28,30.31,10.0,NW,6.9,-,N/A,,Unknown,320,2014-01-15 17:55:00
12:15 PM,41.0,8.6,26,30.29,10.0,NNW,8.1,-,N/A,,Unknown,330,2014-01-15 18:15:00
12:35 PM,42.8,8.6,25,30.28,10.0,North,6.9,-,N/A,,Unknown,350,2014-01-15 18:35:00
12:55 PM,42.8,8.6,25,30.26,10.0,NNW,8.1,-,N/A,,Unknown,330,2014-01-15 18:55:00
1:15 PM,44.6,8.6,23,30.25,10.0,NNW,9.2,-,N/A,,Unknown,330,2014-01-15 19:15:00
1:35 PM,44.6,8.6,23,30.23,10.0,West,6.9,-,N/A,,Unknown,270,2014-01-15 19:35:00
1:55 PM,44.6,10.4,25,30.22,10.0,WSW,10.4,-,N/A,,Unknown,250,2014-01-15 19:55:00
2:15 PM,44.6,10.4,25,30.21,10.0,SW,6.9,-,N/A,,Unknown,230,2014-01-15 20:15:00
2:35 PM,44.6,10.4,25,30.21,10.0,SW,9.2,-,N/A,,Unknown,230,2014-01-15 20:35:00
2:55 PM,46.4,10.4,23,30.20,10.0,NW,10.4,-,N/A,,Unknown,310,2014-01-15 20:55:00
3:15 PM,46.4,10.4,23,30.20,10.0,West,11.5,21.9,N/A,,Unknown,270,2014-01-15 21:15:00
3:35 PM,46.4,10.4,23,30.19,10.0,West,9.2,-,N/A,,Unknown,260,2014-01-15 21:35:00
3:55 PM,46.4,10.4,23,30.19,10.0,West,9.2,-,N/A,,Unknown,270,2014-01-15 21:55:00
4:15 PM,44.6,10.4,25,30.18,10.0,West,3.5,-,N/A,,Unknown,260,2014-01-15 22:15:00
4:35 PM,46.4,10.4,23,30.16,10.0,WSW,6.9,-,N/A,,Unknown,250,2014-01-15 22:35:00
4:55 PM,46.4,10.4,23,30.16,10.0,Calm,Calm,-,N/A,,Unknown,0,2014-01-15 22:55:00
5:15 PM,44.6,10.4,25,30.15,10.0,South,3.5,-,N/A,,Unknown,180,2014-01-15 23:15:00
5:35 PM,41.0,14.0,33,30.13,10.0,South,5.8,-,N/A,,Unknown,170,2014-01-15 23:35:00
5:55 PM,39.2,14.0,36,30.13,10.0,SSE,4.6,-,N/A,,Unknown,160,2014-01-15 23:55:00
6:15 PM,37.4,14.0,38,30.13,10.0,North,-9999.0,-,N/A,,Unknown,0,2014-01-16 00:15:00
6:35 PM,37.4,14.0,38,30.13,10.0,North,-9999.0,-,N/A,,Unknown,0,2014-01-16 00:35:00
6:55 PM,37.4,14.0,38,30.13,10.0,North,-9999.0,-,N/A,,Unknown,0,2014-01-16 00:55:00
7:15 PM,37.4,14.0,38,30.12,10.0,SE,8.1,-,N/A,,Unknown,140,2014-01-16 01:15:00
7:35 PM,37.4,14.0,38,30.12,10.0,SE,6.9,-,N/A,,Unknown,140,2014-01-16 01:35:00
7:55 PM,37.4,14.0,38,30.11,10.0,SSE,8.1,-,N/A,,Unknown,150,2014-01-16 01:55:00
8:15 PM,37.4,14.0,38,30.10,10.0,SSE,8.1,-,N/A,,Unknown,150,2014-01-16 02:15:00
8:35 PM,37.4,14.0,38,30.09,10.0,SSE,8.1,-,N/A,,Unknown,150,2014-01-16 02:35:00
8:55 PM,37.4,14.0,38,30.09,10.0,SSE,5.8,-,N/A,,Unknown,150,2014-01-16 02:55:00
9:15 PM,35.6,14.0,41,30.08,10.0,SSE,4.6,-,N/A,,Unknown,160,2014-01-16 03:15:00
9:35 PM,35.6,15.8,44,30.06,10.0,SSE,5.8,-,N/A,,Unknown,160,2014-01-16 03:35:00
9:55 PM,35.6,15.8,44,30.06,10.0,South,3.5,-,N/A,,Unknown,170,2014-01-16 03:55:00
10:15 PM,32.0,17.6,55,30.06,10.0,SSE,3.5,-,N/A,,Unknown,160,2014-01-16 04:15:00
10:35 PM,32.0,19.4,60,30.05,10.0,SE,3.5,-,N/A,,Unknown,130,2014-01-16 04:35:00
10:55 PM,33.8,17.6,52,30.04,10.0,SSE,4.6,-,N/A,,Unknown,150,2014-01-16 04:55:00
11:15 PM,35.6,17.6,48,30.02,10.0,South,5.8,-,N/A,,Unknown,180,2014-01-16 05:15:00
11:35 PM,39.2,17.6,42,30.01,10.0,South,4.6,-,N/A,,Unknown,190,2014-01-16 05:35:00
11:55 PM,41.0,19.4,42,29.99,10.0,SSW,8.1,-,N/A,,Unknown,210,2014-01-16 05:55:00